FW6726 Weather Reports


Display with metric or nautical units.
time (UTC)temp
F
wind
direction
speed
MPH
gust
MPH
rain 1hr
in
rain 24hr
in
rain mn
in
humidity
%
barometer
mb
20260509070700 56 61 0.0 1.0 0.00 0.00 0.00 93 1016.1
20260509070132 56 61 0.0 2.0 0.00 0.00 0.00 93 1016.0
20260509065631 56 61 1.0 2.0 0.00 0.00 0.00 92 1016.0
20260509065132 56 61 1.0 3.0 0.00 0.00 0.00 92 1016.0
20260509064902 56 61 2.0 3.0 0.00 0.00 0.00 92 1016.0
20260509064133 56 61 1.0 2.0 0.00 0.00 0.00 92 1016.0
20260509063849 56 61 0.0 1.0 0.00 0.00 0.00 92 1016.1
20260509063133 56 61 0.0 1.0 0.00 0.00 0.00 92 1016.0
20260509062632 56 61 1.0 1.0 0.00 0.00 0.00 92 1015.9
20260509062357 56 61 0.0 1.0 0.00 0.00 0.00 92 1016.0
20260509061631 56 61 0.0 2.0 0.00 0.00 0.00 92 1016.0
20260509061131 56 61 1.0 2.0 0.00 0.00 0.00 91 1016.1
20260509060631 56 61 0.0 2.0 0.00 0.00 0.00 91 1016.0
20260509060132 57 61 0.0 1.0 0.00 0.00 0.00 92 1016.0
20260509055632 57 61 0.0 1.0 0.00 0.00 0.00 92 1016.1
20260509055357 57 61 1.0 1.0 0.00 0.00 0.00 92 1016.1
20260509054632 57 61 0.0 0.0 0.00 0.00 0.00 92 1016.1
20260509054131 57 61 0.0 0.0 0.00 0.00 0.00 92 1016.2
20260509053631 57 61 0.0 0.0 0.00 0.00 0.00 91 1016.2
20260509053133 57 61 0.0 1.0 0.00 0.00 0.00 91 1016.3
20260509052632 57 61 0.0 1.0 0.00 0.00 0.00 91 1016.3
20260509052133 57 61 0.0 1.0 0.00 0.00 0.00 91 1016.1
20260509051633 57 61 0.0 1.0 0.00 0.00 0.00 91 1016.1
20260509051133 57 61 0.0 0.0 0.00 0.00 0.00 91 1016.1
20260509050631 57 61 0.0 1.0 0.00 0.00 0.00 90 1016.1
20260509050131 57 61 0.0 2.0 0.00 0.00 0.00 90 1016.2
20260509045631 57 61 1.0 2.0 0.00 0.00 0.00 90 1016.1
20260509045352 57 61 0.0 0.0 0.00 0.00 0.00 90 1016.1
20260509044631 57 61 0.0 0.0 0.00 0.00 0.00 90 1016.0
20260509044131 57 61 0.0 0.0 0.00 0.00 0.00 89 1016.1
20260509043853 57 61 0.0 0.0 0.00 0.00 0.00 89 1016.0
20260509043130 58 61 0.0 0.0 0.00 0.00 0.00 89 1015.9
20260509042631 58 61 0.0 0.0 0.00 0.00 0.00 89 1015.9
20260509042131 58 61 0.0 2.0 0.00 0.00 0.00 89 1015.9
20260509042111 58 61 1.0 2.0 0.00 0.00 0.00 89 1015.8
20260509041132 58 61 0.0 0.0 0.00 0.00 0.00 89 1015.6
20260509040856 58 61 0.0 0.0 0.00 0.00 0.00 89 1015.5
20260509040131 58 61 0.0 1.0 0.00 0.00 0.00 89 1015.6
20260509035631 58 61 0.0 1.0 0.00 0.00 0.00 89 1015.6
20260509035127 58 61 0.0 1.0 0.00 0.00 0.00 88 1015.5
20260509034627 58 61 0.0 4.0 0.00 0.00 0.00 88 1015.5
20260509034127 58 61 0.0 4.0 0.00 0.00 0.00 88 1015.5
20260509033628 58 61 0.0 5.0 0.00 0.00 0.00 88 1015.4
20260509033127 58 61 2.0 5.0 0.00 0.00 0.00 88 1015.4
20260509032626 59 61 2.0 4.0 0.00 0.00 0.00 87 1015.4
20260509032126 59 61 3.0 4.0 0.00 0.00 0.00 87 1015.4
20260509031625 59 63 0.0 3.0 0.00 0.00 0.00 86 1015.5
20260509031127 59 63 0.0 2.0 0.00 0.00 0.00 86 1015.5
20260509030843 59 63 1.0 4.0 0.00 0.00 0.00 85 1015.6
20260509030126 59 63 3.0 4.0 0.00 0.00 0.00 85 1015.5
20260509025625 60 69 3.0 4.0 0.00 0.00 0.00 84 1015.5
20260509025125 60 69 0.0 5.0 0.00 0.00 0.00 84 1015.6
20260509024624 60 65 2.0 5.0 0.00 0.00 0.00 83 1015.7
20260509024126 61 63 2.0 4.0 0.00 0.00 0.00 82 1015.6
20260509023848 61 62 2.0 4.0 0.00 0.00 0.00 81 1015.5
20260509023125 62 62 0.0 3.0 0.00 0.00 0.00 80 1015.6
20260509022844 62 62 0.0 3.0 0.00 0.00 0.00 80 1015.6
20260509022342 62 52 1.0 3.0 0.00 0.00 0.00 80 1015.5
20260509021624 62 55 0.0 4.0 0.00 0.00 0.00 80 1015.4
20260509021124 62 55 2.0 4.0 0.00 0.00 0.00 80 1015.6
20260509020625 63 52 0.0 4.0 0.00 0.00 0.00 80 1015.5
20260509020124 62 42 1.0 4.0 0.00 0.00 0.00 80 1015.5
20260509015624 62 31 1.0 5.0 0.00 0.00 0.00 80 1015.5
20260509015124 63 90 2.0 5.0 0.00 0.00 0.00 79 1015.3
20260509014623 63 82 1.0 5.0 0.00 0.00 0.00 80 1015.4
20260509014123 63 80 2.0 6.0 0.00 0.00 0.00 79 1015.4
20260509013623 63 90 4.0 6.0 0.00 0.00 0.00 79 1015.3
20260509013123 63 90 2.0 4.0 0.00 0.00 0.00 79 1015.4
20260509012624 63 92 2.0 5.0 0.00 0.00 0.00 79 1015.5
20260509012344 64 92 3.0 6.0 0.00 0.00 0.00 79 1015.6
20260509011624 64 86 3.0 6.0 0.00 0.00 0.00 78 1015.5
20260509011123 64 87 4.0 6.0 0.00 0.00 0.00 78 1015.6
20260509010624 64 86 2.0 6.0 0.00 0.00 0.00 78 1015.7
20260509010343 64 89 3.0 6.0 0.00 0.00 0.00 78 1015.7
20260509005623 64 79 4.0 6.0 0.00 0.00 0.00 79 1015.6
20260509005339 64 94 5.0 9.0 0.00 0.00 0.00 78 1015.6
20260509004623 64 85 6.0 9.0 0.00 0.00 0.00 78 1015.6
20260509004353 64 79 5.0 9.0 0.00 0.00 0.00 78 1015.5
20260509003624 64 85 3.0 9.0 0.00 0.00 0.00 77 1015.7
20260509003123 65 85 4.0 9.0 0.00 0.00 0.00 77 1015.6
20260509002624 64 86 3.0 6.0 0.00 0.00 0.00 78 1015.7
20260509002122 64 87 4.0 7.0 0.00 0.00 0.00 77 1015.8
20260509001623 65 82 4.0 7.0 0.00 0.00 0.00 76 1015.8
20260509001353 65 82 3.0 7.0 0.00 0.00 0.00 76 1015.8
20260509000623 65 92 4.0 7.0 0.00 0.00 0.00 75 1015.9
20260509000121 65 80 4.0 9.0 0.00 0.00 0.00 75 1015.9
20260508235622 65 92 5.0 10.0 0.00 0.00 0.00 76 1015.9
20260508235121 65 76 4.0 10.0 0.00 0.00 0.00 75 1016.0
20260508234621 65 85 6.0 7.0 0.00 0.00 0.00 74 1015.9
20260508234121 66 78 5.0 10.0 0.00 0.00 0.00 74 1015.9
20260508233840 66 102 4.0 10.0 0.00 0.00 0.00 74 1016.0
20260508233120 66 83 4.0 9.0 0.00 0.00 0.00 73 1016.1
20260508232621 67 97 4.0 10.0 0.00 0.00 0.00 72 1016.2
20260508232120 67 94 6.0 10.0 0.00 0.00 0.00 72 1016.3
20260508231620 67 83 4.0 9.0 0.00 0.00 0.00 71 1016.4
20260508231120 68 82 4.0 10.0 0.00 0.00 0.00 70 1016.4
20260508230621 68 99 3.0 10.0 0.00 0.00 0.00 70 1016.6
20260508230121 69 99 2.0 7.0 0.00 0.00 0.00 69 1016.6
20260508225621 69 96 4.0 7.0 0.00 0.00 0.00 69 1016.7
20260508225119 69 124 3.0 5.0 0.00 0.00 0.00 69 1016.7
20260508224619 69 99 3.0 7.0 0.00 0.00 0.00 69 1016.8
20260508224119 69 111 4.0 7.0 0.00 0.00 0.00 69 1016.8
20260508223619 69 94 4.0 7.0 0.00 0.00 0.00 69 1016.9
20260508223119 70 134 2.0 6.0 0.00 0.00 0.00 69 1016.9
20260508222619 70 92 4.0 6.0 0.00 0.00 0.00 69 1017.0
20260508222118 70 99 2.0 7.0 0.00 0.00 0.00 69 1017.1
20260508221619 70 118 3.0 7.0 0.00 0.00 0.00 68 1017.2
20260508221118 70 103 3.0 6.0 0.00 0.00 0.00 68 1017.4
20260508220619 70 104 3.0 6.0 0.00 0.00 0.00 68 1017.4
20260508220118 70 133 2.0 9.0 0.00 0.00 0.00 68 1017.6
20260508215617 70 120 4.0 9.0 0.00 0.00 0.00 69 1017.6
20260508215118 70 137 4.0 6.0 0.00 0.00 0.00 68 1017.6
20260508214618 70 104 2.0 6.0 0.00 0.00 0.00 68 1017.6
20260508214118 70 135 3.0 6.0 0.00 0.00 0.00 68 1017.7
20260508213619 70 92 2.0 5.0 0.00 0.00 0.00 68 1017.7
20260508213118 70 86 3.0 9.0 0.00 0.00 0.00 68 1017.8
20260508212841 70 94 4.0 9.0 0.00 0.00 0.00 69 1017.8
20260508212117 70 111 3.0 7.0 0.00 0.00 0.00 69 1017.9
20260508211838 69 127 2.0 10.0 0.00 0.00 0.00 71 1017.9
20260508211117 69 99 2.0 10.0 0.00 0.00 0.00 71 1017.9
20260508210616 69 97 2.0 6.0 0.00 0.00 0.00 72 1018.1
20260508210117 68 135 3.0 6.0 0.00 0.00 0.00 72 1018.2
20260508205617 68 117 2.0 6.0 0.00 0.00 0.00 72 1018.2
20260508205116 68 144 4.0 6.0 0.00 0.00 0.00 72 1018.3
20260508204616 68 102 2.0 6.0 0.00 0.00 0.00 73 1018.5
20260508204116 67 131 2.0 6.0 0.00 0.00 0.00 74 1018.5
20260508203616 67 137 2.0 6.0 0.00 0.00 0.00 75 1018.5
20260508203557 67 92 2.0 6.0 0.00 0.00 0.00 75 1018.4
20260508202616 67 99 2.0 6.0 0.00 0.00 0.00 74 1018.5
20260508202341 67 94 3.0 6.0 0.00 0.00 0.00 76 1018.4
20260508201617 66 134 2.0 7.0 0.00 0.00 0.00 75 1018.6
20260508201118 66 90 2.0 7.0 0.00 0.00 0.00 76 1018.5
20260508200843 66 97 2.0 6.0 0.00 0.00 0.00 78 1018.6
20260508200117 66 113 3.0 6.0 0.00 0.00 0.00 78 1018.7
20260508195615 65 128 1.0 6.0 0.00 0.00 0.00 79 1018.8
20260508195116 65 100 2.0 5.0 0.00 0.00 0.00 80 1018.8
20260508194615 65 109 2.0 5.0 0.00 0.00 0.00 80 1018.9
20260508194116 64 127 1.0 4.0 0.00 0.00 0.00 82 1018.9
20260508193615 64 135 2.0 5.0 0.00 0.00 0.00 83 1018.9
20260508193117 63 133 1.0 5.0 0.00 0.00 0.00 83 1019.0
20260508192616 63 125 2.0 5.0 0.00 0.00 0.00 84 1019.0
20260508192117 63 138 2.0 5.0 0.00 0.00 0.00 83 1019.0
20260508191615 63 118 2.0 5.0 0.00 0.00 0.00 84 1019.0
20260508191116 62 110 3.0 5.0 0.00 0.00 0.00 85 1018.9
20260508190615 62 109 1.0 4.0 0.00 0.00 0.00 85 1018.9
20260508190117 62 120 1.0 3.0 0.00 0.00 0.00 86 1019.0
20260508185615 62 135 1.0 3.0 0.00 0.00 0.00 86 1019.0
20260508185113 62 133 1.0 4.0 0.00 0.00 0.00 86 1019.0
20260508184613 61 109 2.0 4.0 0.00 0.00 0.00 86 1019.1
20260508184336 61 109 1.0 3.0 0.00 0.00 0.00 86 1019.1
20260508183830 61 120 1.0 3.0 0.00 0.00 0.00 87 1019.3
20260508183114 61 133 1.0 3.0 0.00 0.00 0.00 87 1019.3
20260508182613 61 137 0.0 4.0 0.00 0.00 0.00 87 1019.4
20260508182114 61 137 2.0 4.0 0.00 0.00 0.00 87 1019.4
20260508181613 61 137 0.0 4.0 0.00 0.00 0.00 88 1019.5
20260508181337 61 134 0.0 4.0 0.00 0.00 0.00 88 1019.4
20260508180614 61 137 2.0 4.0 0.00 0.00 0.00 88 1019.4
20260508180115 60 120 1.0 3.0 0.00 0.00 0.00 89 1019.4
20260508175613 60 116 1.0 3.0 0.00 0.00 0.00 90 1019.4
20260508175114 60 104 0.0 3.0 0.00 0.00 0.00 90 1019.3
20260508174613 60 107 1.0 3.0 0.00 0.00 0.00 90 1019.3
20260508174115 60 106 0.0 4.0 0.00 0.00 0.00 91 1019.3
20260508173613 60 102 2.0 4.0 0.00 0.00 0.00 91 1019.3
20260508173114 60 102 0.0 3.0 0.00 0.00 0.00 92 1019.3
20260508172612 60 100 1.0 2.0 0.00 0.00 0.00 92 1019.2
20260508172114 59 99 1.0 4.0 0.00 0.00 0.00 93 1019.2
20260508171613 59 97 1.0 4.0 0.00 0.00 0.00 93 1019.2
20260508171113 59 104 0.0 4.0 0.00 0.00 0.00 93 1019.1
20260508170613 59 104 1.0 4.0 0.00 0.00 0.00 93 1019.0
20260508170112 59 106 0.0 2.0 0.00 0.00 0.00 94 1019.0
20260508165611 59 107 1.0 2.0 0.00 0.00 0.00 94 1019.0
20260508165112 58 107 1.0 3.0 0.00 0.00 0.00 94 1019.1
20260508164611 58 107 0.0 3.0 0.00 0.00 0.00 94 1019.1
20260508164112 58 106 0.0 3.0 0.00 0.00 0.00 94 1019.1
20260508163611 58 106 0.0 3.0 0.00 0.00 0.00 94 1019.1
20260508163112 58 109 1.0 4.0 0.00 0.00 0.00 94 1019.1
20260508162611 58 109 2.0 4.0 0.00 0.00 0.00 94 1019.1
20260508162340 58 110 0.0 2.0 0.00 0.00 0.00 94 1019.1
20260508161610 58 110 1.0 4.0 0.00 0.00 0.00 94 1019.1
20260508161111 58 110 2.0 4.0 0.00 0.00 0.00 94 1019.0
20260508160829 58 134 1.0 3.0 0.00 0.00 0.00 94 1019.0
20260508160111 58 135 2.0 3.0 0.00 0.00 0.00 94 1019.1
20260508155610 58 134 0.0 2.0 0.00 0.00 0.00 95 1018.9
20260508155112 58 134 0.0 2.0 0.00 0.00 0.00 95 1019.0
20260508154610 58 134 0.0 3.0 0.00 0.00 0.00 95 1019.0
20260508154331 57 133 1.0 3.0 0.00 0.00 0.00 95 1018.9
20260508153610 57 135 0.0 2.0 0.00 0.00 0.00 94 1019.0
20260508153112 57 135 0.0 2.0 0.00 0.00 0.00 94 1019.0
20260508152830 57 155 0.0 3.0 0.00 0.00 0.00 94 1019.0
20260508152107 57 73 2.0 3.0 0.00 0.00 0.00 94 1018.9
20260508151607 57 52 0.0 0.0 0.00 0.00 0.00 95 1019.0
20260508151105 57 52 0.0 0.0 0.00 0.00 0.00 95 1018.9
20260508151021 57 49 0.0 0.0 0.00 0.00 0.00 94 1018.9
20260508151012 57 49 0.0 0.0 0.00 0.00 0.00 94 1018.9
20260508145822 57 48 0.0 0.0 0.00 0.00 0.00 94 1018.9
20260508145105 56 49 0.0 0.0 0.00 0.00 0.00 94 1018.8
20260508144601 56 48 0.0 0.0 0.00 0.00 0.00 94 1018.9
20260508144103 56 48 0.0 0.0 0.00 0.00 0.00 94 1018.9
20260508143602 56 48 0.0 2.0 0.00 0.00 0.00 94 1018.9
20260508143102 56 48 1.0 2.0 0.00 0.00 0.00 94 1018.9
20260508142602 0 48 0.0 1.0 0.00 0.00 0.00 1018.8
20260508142102 56 48 0.0 2.0 0.00 0.00 0.00 94 1018.6
20260508141603 56 48 0.0 2.0 0.00 0.00 0.00 94 1018.7
20260508141102 56 48 1.0 2.0 0.00 0.00 0.00 94 1018.7
20260508140602 56 48 0.0 2.0 0.00 0.00 0.00 94 1018.7
20260508135602 56 48 0.0 0.0 0.00 0.00 0.00 94 1018.6
20260508135055 56 48 0.0 0.0 0.00 0.00 0.00 94 1018.5
20260508134552 56 48 0.0 0.0 0.00 0.00 0.00 94 1018.5
20260508134050 56 48 0.0 0.0 0.00 0.00 0.00 94 1018.6
20260508133537 56 48 0.0 2.0 0.00 0.00 0.00 94 1018.5
20260508133033 56 48 1.0 2.0 0.00 0.00 0.00 94 1018.4
20260508132532 55 48 0.0 1.0 0.00 0.00 0.00 94 1018.4
20260508132032 55 48 0.0 3.0 0.00 0.00 0.00 94 1018.2
20260508131531 55 48 1.0 3.0 0.00 0.00 0.00 93 1018.1
20260508131300 55 48 2.0 4.0 0.00 0.00 0.00 93 1018.1
20260508130531 55 48 2.0 4.0 0.00 0.00 0.00 93 1017.9
20260508130248 55 47 2.0 5.0 0.00 0.00 0.00 93 1017.9
20260508125531 55 59 3.0 5.0 0.00 0.00 0.00 93 1017.9
20260508125031 55 61 3.0 5.0 0.00 0.00 0.00 93 1018.1
20260508124533 55 51 4.0 6.0 0.00 0.00 0.00 92 1017.9
20260508124033 55 65 4.0 6.0 0.00 0.00 0.00 92 1018.1
20260508123533 55 38 4.0 7.0 0.00 0.00 0.00 92 1017.9
20260508123033 55 42 4.0 9.0 0.00 0.00 0.00 92 1018.1
20260508122754 55 45 5.0 9.0 0.00 0.00 0.00 91 1017.9
20260508122033 56 49 3.0 6.0 0.00 0.00 0.00 91 1017.9
20260508121532 56 58 2.0 6.0 0.00 0.00 0.00 91 1017.8
20260508121031 56 62 4.0 6.0 0.00 0.00 0.00 91 1017.6
20260508120754 56 55 3.0 4.0 0.00 0.00 0.00 91 1017.7
20260508120031 56 127 1.0 2.0 0.00 0.00 0.00 91 1017.7
20260508115531 56 127 0.0 1.0 0.00 0.00 0.00 91 1017.7
20260508115031 56 127 0.0 2.0 0.00 0.00 0.00 91 1017.6
20260508114754 56 127 0.0 2.0 0.00 0.00 0.00 91 1017.6
20260508114031 56 90 0.0 0.0 0.00 0.00 0.00 90 1017.7
20260508113757 56 90 0.0 0.0 0.00 0.00 0.00 90 1017.6
20260508113030 56 90 0.0 0.0 0.00 0.00 0.00 90 1017.5
20260508112753 56 90 0.0 0.0 0.00 0.00 0.00 90 1017.5
20260508112031 57 90 0.0 0.0 0.00 0.00 0.00 89 1017.5
20260508111751 57 90 0.0 0.0 0.00 0.00 0.00 89 1017.4
20260508111031 57 90 0.0 0.0 0.00 0.00 0.00 89 1017.5
20260508110528 57 90 0.0 1.0 0.00 0.00 0.00 89 1017.4
20260508110028 57 90 0.0 1.0 0.00 0.00 0.00 89 1017.4
20260508105526 57 90 0.0 1.0 0.00 0.00 0.00 88 1017.5
20260508105026 57 90 0.0 0.0 0.00 0.00 0.00 88 1017.3
20260508104526 57 90 0.0 0.0 0.00 0.00 0.00 89 1017.3
20260508104249 57 90 0.0 0.0 0.00 0.00 0.00 89 1017.2
20260508103524 57 90 0.0 0.0 0.00 0.00 0.00 88 1017.2
20260508103019 57 90 0.0 0.0 0.00 0.00 0.00 88 1017.2
20260508102519 58 90 0.0 0.0 0.00 0.00 0.00 88 1017.2
20260508102005 58 90 0.0 0.0 0.00 0.00 0.00 88 1017.2
20260508101503 58 90 0.0 0.0 0.00 0.00 0.00 87 1017.3
20260508101003 58 90 0.0 0.0 0.00 0.00 0.00 87 1017.3
20260508100502 58 90 0.0 0.0 0.00 0.00 0.00 86 1017.3
20260508100001 58 90 0.0 0.0 0.00 0.00 0.00 86 1017.3
20260508095727 58 90 0.0 0.0 0.00 0.00 0.00 86 1017.2
20260508095004 58 90 0.0 0.0 0.00 0.00 0.00 86 1017.2
20260508094725 58 90 0.0 0.0 0.00 0.00 0.00 86 1017.2
20260508094004 58 90 0.0 0.0 0.00 0.00 0.00 86 1017.1
20260508093502 58 90 0.0 0.0 0.00 0.00 0.00 85 1017.1
20260508093003 59 90 0.0 0.0 0.00 0.00 0.00 85 1017.1
20260508092501 59 90 0.0 0.0 0.00 0.00 0.00 85 1017.1
20260508092001 59 90 0.0 0.0 0.00 0.00 0.00 85 1017.2
20260508091500 59 90 0.0 0.0 0.00 0.00 0.00 85 1017.2
20260508091221 59 90 0.0 1.0 0.00 0.00 0.00 84 1017.3
20260508090500 59 90 0.0 3.0 0.00 0.00 0.00 84 1017.2
20260508090228 59 90 1.0 3.0 0.00 0.00 0.00 84 1017.2
20260508085501 59 90 0.0 0.0 0.00 0.00 0.00 84 1017.2
20260508085000 59 90 0.0 0.0 0.00 0.00 0.00 84 1017.2
20260508084725 59 90 0.0 0.0 0.00 0.00 0.00 84 1017.2
20260508084000 59 90 0.0 0.0 0.00 0.00 0.00 84 1017.2
20260508083503 59 90 0.0 0.0 0.00 0.00 0.00 84 1017.2
20260508083000 59 90 0.0 0.0 0.00 0.00 0.00 83 1017.1
20260508082721 60 90 0.0 0.0 0.00 0.00 0.00 83 1017.2
20260508082000 60 90 0.0 0.0 0.00 0.00 0.00 83 1017.3
20260508081500 60 90 0.0 0.0 0.00 0.00 0.00 83 1017.3
20260508080959 60 90 0.0 0.0 0.00 0.00 0.00 82 1017.3
20260508080458 60 90 0.0 2.0 0.00 0.00 0.00 82 1017.4
20260508075958 60 90 0.0 2.0 0.00 0.00 0.00 82 1017.4
20260508075459 60 90 0.0 2.0 0.00 0.00 0.00 82 1017.4
20260508074958 60 90 0.0 0.0 0.00 0.00 0.00 81 1017.3
20260508074458 61 90 0.0 3.0 0.00 0.00 0.00 81 1017.3
20260508073958 61 90 0.0 3.0 0.00 0.00 0.00 80 1017.3
20260508073459 61 90 1.0 3.0 0.00 0.00 0.00 80 1017.2
20260508072958 61 90 0.0 3.0 0.00 0.00 0.00 79 1017.2
20260508072458 61 90 0.0 3.0 0.00 0.00 0.00 79 1017.3
20260508071958 61 90 1.0 4.0 0.00 0.00 0.00 78 1017.2
20260508071723 62 90 2.0 4.0 0.00 0.00 0.00 77 1017.2
20260508070957 62 90 1.0 4.0 0.00 0.00 0.00 77 1017.1